Location: Frankfurt+(oder)
(51.7984°N, 12.2168°E)
Time: 08:16:38
(UTC+01:00)

ISS - Pass Details

Date: 07 January 2018
Orbit: 401 x 406 km, 51.6° (Epoch: 17 January)

Event Time Altitude Azimuth Distance (km) Brightness Sun altitude
Exits shadow 05:58:09 81° 94° (E) 416 -3.8 -20.3°
Drops below altitude 10° 06:01:18 10° 93° (E) 1,468 0.2 -19.8°
Sets 06:03:23 0° 93° (E) 2,329 1.6 -19.5°
